[Iaude] MPEC U106: 2023 UQ1 [a=1.54,e=0.39,i=6.6,H=26.5]

mpec at marsden.cfa.harvard.edu mpec at marsden.cfa.harvard.edu
Thu Oct 19 15:39:14 EDT 2023


M.P.E.C. 2023-U106                             Issued 2023 October 19, 19:37 UT

     The Minor Planet Electronic Circulars contain information on unusual
         minor planets, routine data on comets and natural satellites,
         and occasional editorial announcements.  They are published
    on behalf of Division F of the International Astronomical Union by the
          Minor Planet Center, Smithsonian Astrophysical Observatory,
                          Cambridge, MA 02138, U.S.A.
			  
             Prepared using the Tamkin Foundation Computer Network

                              MPC at CFA.HARVARD.EDU
            URL https://www.minorplanetcenter.net/    ISSN 1523-6714

                                    2023 UQ1                                    


Observations:
     K23U01Q* C2023 10 17.44621904 41 32.035+14 22 59.45         20.93GVEU106V00
     K23U01Q  C2023 10 17.45172004 41 27.748+14 24 13.68         20.84GVEU106V00
     K23U01Q  C2023 10 17.45721804 41 23.478+14 25 26.44               VEU106V00
     K23U01Q  C2023 10 17.46271704 41 19.187+14 26 40.06         20.91GVEU106V00
     K23U01Q  C2023 10 17.48854204 40 58.357+14 32 14.01         20.6 GVEU106H01
     K23U01Q  C2023 10 17.49214604 40 55.593+14 33 01.58         20.4 GVEU106H01
     K23U01Q  C2023 10 17.50125704 40 48.633+14 35 01.55         20.2 GVEU106H01
     K23U01Q  C2023 10 17.51014404 40 41.869+14 36 58.09         20.4 GVEU106H01
     K23U01Q KC2023 10 18.28188 04 32 32.62 +17 14 44.6          20.9 VqEU106734
     K23U01Q KC2023 10 18.29426 04 32 24.25 +17 17 06.9          21.6 VqEU106734
     K23U01Q KC2023 10 18.30645 04 32 15.98 +17 19 27.6          21.2 VqEU106734
     K23U01Q KC2023 10 18.32544204 32 01.49 +17 23 04.0          22.1 VuEU106H21
     K23U01Q KC2023 10 18.32823804 31 59.58 +17 23 35.5          22.1 VuEU106H21
     K23U01Q KC2023 10 18.33103304 31 57.67 +17 24 07.4          22.3 VuEU106H21
     K23U01Q KC2023 10 18.33382804 31 55.79 +17 24 38.6          21.9 VuEU106H21
     K23U01Q KC2023 10 18.33662404 31 53.88 +17 25 10.3          22.0 VuEU106H21
     K23U01Q  C2023 10 18.33775404 31 58.969+17 25 29.91         20.9 GVEU106654
     K23U01Q KC2023 10 18.34221404 31 50.09 +17 26 13.1          22.0 VuEU106H21
     K23U01Q  C2023 10 18.34565304 31 53.655+17 27 00.28         20.9 GVEU106654
     K23U01Q  C2023 10 19.32349904 22 36.312+20 13 24.79         21.2 GVEU106654
     K23U01Q  C2023 10 19.33577304 22 29.076+20 15 21.10         21.2 GVEU106654

Observer details:
654 Table Mountain Observatory, Wrightwood-PHMC.  Observers N. Evans, P. Choi,
    N. Saini, C. Zhai, R. Trahan, M. Shao.  1.0-m Reflector + CCD.
734 Farpoint Observatory, Eskridge.  Observers D. Cromer, G. Hug, D. Goodin,
    R. Valentine.  Measurer G. Hug.  0.69-m f/3.54 reflector + CCD.
H01 Magdalena Ridge Observatory, Socorro.  Observers W. H. Ryan, E. V. Ryan.
    Measurer W. H. Ryan.  2.4-m f/8.9 Ritchey-Chretien + CCD.
H21 Astronomical Research Observatory, Westfield.  Observer R. Holmes.
    Measurers T. Linder, R. Holmes, L. Horn.  0.76-m f/3.0 astrograph + CCD.
V00 Kitt Peak-Bok.  Observer R. A. Mastaler.  Measurers M. J. Brucker, C. E.
    Woodward, D. Fay, J. B. Fazekas, D. C. Fuls, A. R. Gibbs, H. Groeller, J.
    K. Hogan, R. A. Kowalski, S. M. Larson, C. Lejoly, G. J. Leonard, R. A.
    Mastaler, R. S. McMillan, D. Rankin, R. L. Seaman, A. Serrano, F. C.
    Shelly, K. W. Wierzchos.  2.25-m reflector + 4x4K mosaic CCD.

Orbital elements:
2023 UQ1                                                 Earth MOID = 0.0168 AU
Epoch 2023 Sept. 13.0 TT = JDT 2460200.5                Veres                   
M   1.25016              (2000.0)            P               Q                  
n   0.51439499     Peri.  313.09096     +0.94157379     +0.33251828             
a   1.5426648      Node    27.61623     -0.26558003     +0.83082867             
e   0.3898643      Incl.    6.63699     -0.20713776     +0.44626822             
P   1.92           H   26.57          G   0.15           U   8                  
Residuals in seconds of arc
231017 V00  0.2-  0.2+    231017 H01  0.0   0.1-    231018 H21  0.2-  0.0
231017 V00  0.1-  0.7+    231018 734  0.0   0.2+    231018 H21  0.2-  0.1+
231017 V00  0.1+  0.1-    231018 734  0.0   0.2-    231018 654  0.1+  0.3-
231017 V00  0.1-  0.1+    231018 734  0.2-  0.5+    231018 H21  0.1+  0.1-
231017 H01  0.0   0.0     231018 H21  0.5-  0.1+    231018 654  0.1+  0.2-
231017 H01  0.0   0.0     231018 H21  0.5-  0.1-    231019 654  0.0   0.0
231017 H01  0.1+  0.0     231018 H21  0.6-  0.4+    231019 654  0.0   0.0

Ephemeris:
2023 UQ1                 a,e,i = 1.54, 0.39, 7                   q = 0.9412
Date    TT    R. A. (2000) Decl.     Delta      r    Elong.  Phase     V
2023 09 19    13 30 44.0 -48 12 56   0.1110  0.9458    55.2   119.3    26.5
...
2023 10 04    11 09 14.9 -54 52 48   0.04304 0.9758    53.9   124.1    24.9
...
2023 10 12    06 23 37.8 -20 18 05   0.02493 1.0019    97.5    81.1    21.4
...
2023 10 18    04 35 23.4 +16 21 10   0.04059 1.0252   134.1    44.3    21.4
2023 10 19    04 25 25.7 +19 22 43   0.04454 1.0294   137.2    41.1    21.5
2023 10 20    04 16 44.8 +21 52 20   0.04867 1.0337   139.8    38.4    21.6
...
2023 10 26    03 41 35.1 +30 21 16   0.07575 1.0607   150.1    27.8    22.3
...
2023 11 03    03 16 35.4 +34 23 48   0.1155  1.1000   157.8    19.9    23.1
...
2023 11 18    02 54 46.6 +35 39 27   0.2010  1.1811   161.6    15.3    24.3

M. P. C. Staff               (C) Copyright 2023 MPC           M.P.E.C. 2023-U106





More information about the Iaude mailing list